EN

Hourly Weather Lugi Apushkiny

Today, 14 May, Friday

Time Temperature Precipitation Wind Pressure Humidity
00:00 +12°C° 0 mm 2 mps 749 mmHg 92%
01:00 +12°C° 0 mm 2 mps 749 mmHg 92%
02:00 +12°C° 0 mm 2 mps 749 mmHg 93%
03:00 +12°C° 0 mm 2 mps 749 mmHg 93%
04:00 +12°C° 0 mm 2 mps 749 mmHg 93%
05:00 +13°C° 0 mm 2 mps 749 mmHg 94%
06:00 +12°C° 0 mm 3 mps 749 mmHg 94%
07:00 +14°C° 0 mm 3 mps 749 mmHg 89%
08:00 +17°C° 0 mm 4 mps 749 mmHg 84%
09:00 +18°C° 0 mm 4 mps 748 mmHg 79%
10:00 +20°C° 0 mm 5 mps 748 mmHg 76%
11:00 +21°C° 0 mm 6 mps 748 mmHg 72%
12:00 +22°C° 0 mm 6 mps 748 mmHg 69%
13:00 +22°C° 0.5 mm 7 mps 747 mmHg 70%
14:00 +23°C° 0.5 mm 7 mps 747 mmHg 70%
15:00 +23°C° 0.5 mm 8 mps 746 mmHg 70%
16:00 +23°C° 0 mm 7 mps 746 mmHg 71%
17:00 +22°C° 0 mm 6 mps 746 mmHg 72%
18:00 +21°C° 0 mm 5 mps 746 mmHg 72%
19:00 +20°C° 0.2 mm 5 mps 746 mmHg 78%
20:00 +18°C° 0.2 mm 4 mps 746 mmHg 84%
21:00 +17°C° 0.2 mm 3 mps 746 mmHg 90%
22:00 +17°C° 0.2 mm 3 mps 746 mmHg 91%
23:00 +17°C° 0.2 mm 3 mps 746 mmHg 92%

Tomorrow, 15 May, Saturday

Time Temperature Precipitation Wind Pressure Humidity
00:00 +17°C° 0.2 mm 2 mps 745 mmHg 92%
01:00 +17°C° 0.1 mm 2 mps 745 mmHg 93%
02:00 +16°C° 0.1 mm 2 mps 745 mmHg 94%
03:00 +16°C° 0.1 mm 2 mps 745 mmHg 94%
04:00 +16°C° 0 mm 2 mps 745 mmHg 93%
05:00 +16°C° 0 mm 2 mps 745 mmHg 92%
06:00 +16°C° 0 mm 2 mps 746 mmHg 91%
07:00 +17°C° 0 mm 3 mps 746 mmHg 86%
08:00 +18°C° 0 mm 3 mps 746 mmHg 80%
09:00 +19°C° 0 mm 4 mps 747 mmHg 75%
10:00 +20°C° 0 mm 4 mps 747 mmHg 69%
11:00 +21°C° 0 mm 5 mps 747 mmHg 63%
12:00 +22°C° 0 mm 5 mps 747 mmHg 57%
13:00 +23°C° 0 mm 5 mps 747 mmHg 56%
14:00 +23°C° 0 mm 5 mps 747 mmHg 54%
15:00 +23°C° 0 mm 5 mps 747 mmHg 52%
16:00 +22°C° 0.1 mm 5 mps 747 mmHg 57%
17:00 +22°C° 0.1 mm 5 mps 747 mmHg 62%
18:00 +21°C° 0.1 mm 4 mps 747 mmHg 67%
19:00 +19°C° 0 mm 4 mps 747 mmHg 71%
20:00 +18°C° 0 mm 3 mps 747 mmHg 76%
21:00 +16°C° 0 mm 3 mps 748 mmHg 81%
22:00 +16°C° 0 mm 2 mps 748 mmHg 82%
23:00 +15°C° 0 mm 2 mps 748 mmHg 84%

Day after tomorrow, 16 May, Sunday

Time Temperature Precipitation Wind Pressure Humidity
00:00 +15°C° 0 mm 2 mps 748 mmHg 85%
01:00 +14°C° 0 mm 2 mps 748 mmHg 86%
02:00 +14°C° 0 mm 2 mps 748 mmHg 86%
03:00 +14°C° 0 mm 1 mps 748 mmHg 87%
04:00 +14°C° 0 mm 1 mps 748 mmHg 86%
05:00 +15°C° 0 mm 1 mps 748 mmHg 84%
06:00 +15°C° 0 mm 1 mps 748 mmHg 83%
07:00 +17°C° 0 mm 2 mps 748 mmHg 78%
08:00 +18°C° 0 mm 2 mps 749 mmHg 73%
09:00 +20°C° 0 mm 2 mps 749 mmHg 67%
10:00 +21°C° 0.1 mm 2 mps 749 mmHg 63%
11:00 +23°C° 0.1 mm 2 mps 749 mmHg 58%
12:00 +25°C° 0.1 mm 3 mps 749 mmHg 54%
13:00 +25°C° 0 mm 2 mps 749 mmHg 51%
14:00 +26°C° 0 mm 2 mps 748 mmHg 48%
15:00 +26°C° 0 mm 2 mps 748 mmHg 46%
16:00 +26°C° 0 mm 2 mps 748 mmHg 50%
17:00 +26°C° 0 mm 1 mps 748 mmHg 55%
18:00 +25°C° 0 mm 1 mps 747 mmHg 60%
19:00 +23°C° 0 mm 1 mps 747 mmHg 64%
20:00 +21°C° 0 mm 2 mps 748 mmHg 68%
21:00 +19°C° 0 mm 2 mps 748 mmHg 72%
22:00 +18°C° 0 mm 3 mps 747 mmHg 76%
23:00 +18°C° 0 mm 3 mps 747 mmHg 80%

17 May, Monday

Time Temperature Precipitation Wind Pressure Humidity
00:00 +17°C° 0 mm 3 mps 747 mmHg 84%
01:00 +17°C° 0.1 mm 3 mps 747 mmHg 87%
02:00 +16°C° 0.1 mm 3 mps 747 mmHg 90%
03:00 +16°C° 0.1 mm 3 mps 747 mmHg 93%
04:00 +15°C° 0 mm 4 mps 746 mmHg 91%
05:00 +15°C° 0 mm 4 mps 746 mmHg 88%
06:00 +17°C° 0 mm 4 mps 745 mmHg 86%
07:00 +18°C° 0 mm 4 mps 746 mmHg 79%
08:00 +20°C° 0 mm 5 mps 746 mmHg 71%
09:00 +22°C° 0 mm 5 mps 746 mmHg 64%
10:00 +23°C° 0 mm 5 mps 745 mmHg 60%
11:00 +24°C° 0 mm 6 mps 745 mmHg 56%
12:00 +27°C° 0 mm 6 mps 745 mmHg 52%
13:00 +27°C° 0 mm 6 mps 745 mmHg 52%
14:00 +27°C° 0 mm 7 mps 745 mmHg 52%
15:00 +28°C° 0 mm 7 mps 744 mmHg 53%
16:00 +27°C° 0 mm 6 mps 744 mmHg 56%
17:00 +26°C° 0 mm 6 mps 744 mmHg 59%
18:00 +24°C° 0 mm 6 mps 744 mmHg 62%
19:00 +23°C° 0 mm 6 mps 744 mmHg 66%
20:00 +21°C° 0 mm 5 mps 743 mmHg 71%
21:00 +20°C° 0 mm 5 mps 743 mmHg 75%
22:00 +19°C° 0 mm 4 mps 743 mmHg 78%
23:00 +18°C° 0 mm 4 mps 743 mmHg 81%

18 May, Tuesday

Time Temperature Precipitation Wind Pressure Humidity
00:00 +18°C° 0 mm 3 mps 743 mmHg 84%
01:00 +17°C° 0 mm 3 mps 743 mmHg 84%
02:00 +17°C° 0 mm 3 mps 743 mmHg 84%
03:00 +16°C° 0 mm 3 mps 743 mmHg 85%
04:00 +17°C° 0 mm 3 mps 743 mmHg 86%
05:00 +17°C° 0 mm 3 mps 743 mmHg 86%
06:00 +17°C° 0 mm 3 mps 743 mmHg 87%
07:00 +18°C° 0.4 mm 4 mps 743 mmHg 86%
08:00 +20°C° 0.4 mm 5 mps 743 mmHg 84%
09:00 +21°C° 0.4 mm 6 mps 743 mmHg 83%
10:00 +22°C° 0.3 mm 6 mps 743 mmHg 80%
11:00 +22°C° 0.3 mm 6 mps 743 mmHg 78%
12:00 +22°C° 0.3 mm 7 mps 744 mmHg 75%
13:00 +22°C° 0.2 mm 6 mps 744 mmHg 74%
14:00 +22°C° 0.2 mm 6 mps 744 mmHg 74%
15:00 +22°C° 0.2 mm 6 mps 744 mmHg 74%
16:00 +22°C° 0.1 mm 5 mps 744 mmHg 74%
17:00 +21°C° 0.1 mm 4 mps 744 mmHg 75%
18:00 +21°C° 0.1 mm 3 mps 744 mmHg 76%
19:00 +20°C° 0.6 mm 3 mps 744 mmHg 80%
20:00 +18°C° 0.6 mm 3 mps 744 mmHg 85%
21:00 +17°C° 0.6 mm 3 mps 744 mmHg 89%
22:00 +16°C° 0.1 mm 2 mps 744 mmHg 90%
23:00 +16°C° 0.1 mm 2 mps 744 mmHg 91%

19 May, Wednesday

Time Temperature Precipitation Wind Pressure Humidity
00:00 +15°C° 0.1 mm 2 mps 744 mmHg 92%
01:00 +15°C° 0 mm 2 mps 744 mmHg 93%
02:00 +15°C° 0 mm 2 mps 744 mmHg 93%
03:00 +14°C° 0 mm 2 mps 744 mmHg 94%
04:00 +14°C° 0 mm 3 mps 744 mmHg 93%
05:00 +14°C° 0 mm 3 mps 744 mmHg 93%
06:00 +14°C° 0 mm 3 mps 744 mmHg 92%
07:00 +15°C° 0.1 mm 4 mps 744 mmHg 90%
08:00 +16°C° 0.1 mm 5 mps 744 mmHg 87%
09:00 +17°C° 0.1 mm 6 mps 744 mmHg 84%
10:00 +18°C° 0.2 mm 7 mps 744 mmHg 81%
11:00 +20°C° 0.2 mm 7 mps 744 mmHg 78%
12:00 +21°C° 0.2 mm 8 mps 744 mmHg 75%
13:00 +20°C° 0.2 mm 7 mps 745 mmHg 76%
14:00 +20°C° 0.2 mm 7 mps 745 mmHg 78%
15:00 +20°C° 0.2 mm 7 mps 745 mmHg 79%
16:00 +19°C° 0.1 mm 6 mps 745 mmHg 80%
17:00 +17°C° 0.1 mm 5 mps 745 mmHg 81%
18:00 +17°C° 0.1 mm 5 mps 746 mmHg 82%
19:00 +17°C° 0 mm 4 mps 746 mmHg 84%
20:00 +17°C° 0 mm 4 mps 746 mmHg 86%
21:00 +16°C° 0 mm 3 mps 746 mmHg 88%
22:00 +16°C° 0 mm 3 mps 746 mmHg 89%
23:00 +14°C° 0 mm 3 mps 746 mmHg 90%
Show more